TimePST,TemperatureF,Dew PointF,Humidity,Sea Level PressureIn,VisibilityMPH,Wind Direction,Wind SpeedMPH,Gust SpeedMPH,PrecipitationIn,Events,Conditions,WindDirDegrees,DateUTC
12:00 AM,41.0,35.6,81,30.02,20.0,Calm,Calm,-,N/A,,Overcast,0,2013-02-21 08:00:00
1:00 AM,41.0,37.4,87,30.01,20.0,Calm,Calm,-,N/A,,Overcast,0,2013-02-21 09:00:00
2:00 AM,41.0,37.4,87,30.01,20.0,West,3.5,-,N/A,,Overcast,270,2013-02-21 10:00:00
3:00 AM,39.2,37.4,93,30.00,20.0,Calm,Calm,-,N/A,,Overcast,0,2013-02-21 11:00:00
4:00 AM,41,36,76,29.98,28,SSW,2.3,,,,Overcast,200,2013-02-21 12:00:00
4:00 AM,41.0,35.6,81,29.98,30.0,SW,2.3,-,N/A,,Overcast,230,2013-02-21 12:00:00
5:00 AM,42.8,35.6,76,29.97,30.0,SE,5.8,-,N/A,,Overcast,140,2013-02-21 13:00:00
6:00 AM,42.8,35.6,76,29.97,20.0,SW,15.0,-,N/A,,Overcast,220,2013-02-21 14:00:00
7:00 AM,42.8,33.8,70,29.97,30.0,SSW,16.1,-,N/A,,Overcast,200,2013-02-21 15:00:00
8:00 AM,42.8,33.8,70,29.96,30.0,SSW,9.2,17.3,N/A,,Mostly Cloudy,200,2013-02-21 16:00:00
9:00 AM,42.8,32.0,66,29.97,30.0,SSW,8.1,-,N/A,,Mostly Cloudy,200,2013-02-21 17:00:00
10:00 AM,43,34,62,29.98,28,South,12.7,,,,Mostly Cloudy,180,2013-02-21 18:00:00
10:00 AM,42.8,33.8,70,29.98,30.0,South,11.5,19.6,N/A,,Mostly Cloudy,180,2013-02-21 18:00:00
10:07 AM,42.8,-9999,N/A,-9999,30.0,South,13.8,20.7,N/A,Rain,Light Rain,180,2013-02-21 18:07:00
11:00 AM,41.0,35.6,81,29.98,30.0,SSW,9.2,17.3,N/A,Rain,Light Rain,200,2013-02-21 19:00:00
12:00 PM,42.8,39.2,87,29.99,30.0,South,9.2,-,N/A,Rain,Light Rain,170,2013-02-21 20:00:00
12:23 PM,44.6,-9999,N/A,-9999,30.0,South,8.1,17.3,N/A,,Mostly Cloudy,180,2013-02-21 20:23:00
1:00 PM,44.6,37.4,76,29.97,30.0,SSW,6.9,-,N/A,,Mostly Cloudy,210,2013-02-21 21:00:00
2:00 PM,48.2,37.4,66,29.96,30.0,SSW,11.5,17.3,N/A,,Mostly Cloudy,200,2013-02-21 22:00:00
3:00 PM,48.2,37.4,66,29.96,30.0,South,16.1,-,N/A,,Mostly Cloudy,190,2013-02-21 23:00:00
4:00 PM,47,36,56,29.97,28,SSW,8.1,,,,Partly Cloudy,200,2013-02-22 00:00:00
4:00 PM,46.4,35.6,66,29.97,30.0,SSW,8.1,-,N/A,,Overcast,200,2013-02-22 00:00:00
5:00 PM,46.4,35.6,66,29.99,30.0,SW,9.2,-,N/A,,Overcast,230,2013-02-22 01:00:00
6:00 PM,44.6,35.6,71,30.00,30.0,SW,10.4,-,N/A,,Overcast,230,2013-02-22 02:00:00
7:00 PM,44.6,33.8,66,29.99,30.0,SSW,9.2,-,N/A,,Mostly Cloudy,210,2013-02-22 03:00:00
8:00 PM,44.6,35.6,71,30.01,30.0,SSW,4.6,-,N/A,,Mostly Cloudy,210,2013-02-22 04:00:00
9:00 PM,44.6,35.6,71,30.02,30.0,SW,8.1,-,N/A,,Overcast,230,2013-02-22 05:00:00
10:00 PM,44,36,64,30.00,28,SSW,9.2,,,,Overcast,210,2013-02-22 06:00:00
10:00 PM,44.6,35.6,71,30.00,30.0,SW,6.9,-,N/A,,Overcast,220,2013-02-22 06:00:00
11:00 PM,44.6,35.6,71,30.00,20.0,South,11.5,-,N/A,,Overcast,190,2013-02-22 07:00:00